Location: Bord�res
(43.2000°N, 0.2167°W)
Time: 13:57:25
(UTC+00:00)

ATLAS CENTAUR R/B - Pass Details

Date: 03 March 2021
Orbit: 475 x 670 km, 64.7° (Epoch: 30 March)

Event Time Altitude Azimuth Distance (km) Brightness Sun altitude
Rises 18:17:07 0° 185° (S) 2,527 4.8 -5.3°
Reaches altitude 10° 18:19:29 10° 172° (S) 1,641 3.7 -5.7°
Maximum altitude 18:22:31 25° 115° (ESE) 990 2.1 -6.2°
Drops below altitude 10° 18:25:34 10° 59° (ENE) 1,650 3.2 -6.8°
Enters shadow 18:27:02 - 49° (NE) 2,191 3.9 -7.1°
